Location: New Plymouth
(39.0670°S, 174.0830°E)
Time: 20:32:15
(UTC+12:00)

Meteor 1-26 Rocket - Pass Details

Date: 24 January 2019
Orbit: 820 x 914 km, 81.3° (Epoch: 22 April)

Event Time Altitude Azimuth Distance (km) Brightness Sun altitude
Exits shadow 22:55:49 37° 16° (NNE) 1,361 4.8 -20.8°
Maximum altitude 22:58:07 66° 84° (E) 971 4.3 -21.0°
Drops below altitude 10° 23:03:50 10° 165° (SSE) 2,537 7.1 -21.7°
Sets 23:06:17 0° 167° (SSE) 3,467 7.9 -22.0°
